Theta_e
321 324 324 321 320 316 314 314 314 315 318 320 319 318 319 318 319 318 318 318 318 317 317 318 314 313 314 314 315 315 315 315 316 318 322 325 327 329 330 331 330 329 330 329
322 322 318 318 319 319 317 315 315 315 317 319 316 317 317 317 317 317 317 317 317 316 317 316 313 313 313 312 312 313 314 316 317 315 319 323 325 326 327 329 330 330 328 328
323 319 318 318 319 321 320 317 315 316 319 319 319 319 318 317 317 317 317 318 318 318 317 314 312 311 311 310 309 309 310 313 315 321 316 318 322 325 326 328 329 329 329 327
319 317 316 318 319 319 319 317 318 318 320 318 318 321 317 317 317 317 317 318 317 316 313 312 311 310 308 307 307 306 307 309 311 315 322 321 323 325 325 326 327 327 328 328
317 317 318 318 318 317 319 319 320 320 322 321 320 321 317 315 316 316 316 318 317 316 313 311 309 307 306 305 305 304 303 304 307 309 313 320 322 325 325 325 327 328 328 329
315 315 317 317 318 318 319 320 320 321 320 322 318 318 315 316 316 316 315 315 315 313 311 309 306 305 304 303 302 302 301 300 302 303 305 308 311 314 313 313 316 319 322 325
316 317 316 316 319 318 320 320 320 321 321 317 314 316 315 315 315 314 314 315 314 312 310 308 306 304 302 301 300 300 299 297 298 300 300 301 304 304 304 304 305 307 309 309
316 316 316 316 316 317 319 317 316 315 316 313 314 315 314 315 314 313 314 314 313 311 309 306 304 302 300 299 298 297 298 296 295 296 297 297 299 298 298 298 299 300 301 300
315 314 313 314 315 315 318 321 314 316 313 316 316 314 314 314 313 314 314 313 313 310 307 305 302 300 298 296 296 294 295 295 293 294 296 296 296 295 295 295 295 296 296 296
313 315 313 313 314 314 316 315 319 319 320 317 313 312 313 314 313 313 314 314 312 310 307 304 301 298 296 294 294 293 292 292 290 291 292 292 293 292 292 292 292 292 293 293
312 313 313 314 316 315 316 316 317 316 319 317 317 314 312 312 313 312 313 314 313 310 306 303 299 296 293 292 291 292 290 289 289 289 289 290 290 289 289 289 289 289 290 290
314 313 315 315 312 313 315 314 316 316 317 316 315 315 310 310 310 311 311 313 312 310 306 302 299 296 293 291 290 290 288 287 287 287 287 288 287 287 287 287 287 287 287 288
314 314 316 315 314 309 314 315 314 314 313 314 319 316 312 312 310 310 310 310 311 309 304 300 297 295 293 290 289 288 286 285 285 285 286 285 285 284 285 284 285 285 285 286
313 313 314 315 312 312 313 313 315 315 317 317 316 314 312 311 310 309 309 310 311 307 302 299 296 294 292 289 287 286 285 284 283 284 284 283 283 283 283 283 283 283 283 284
313 315 313 313 312 311 311 312 314 316 315 316 314 314 312 312 311 311 309 309 310 305 302 299 297 294 290 288 286 284 283 282 282 283 282 282 282 281 281 281 281 282 282 282
312 315 314 314 313 312 313 311 310 313 314 315 314 314 311 310 311 311 311 309 309 306 302 299 296 292 289 286 285 282 282 281 281 282 281 280 280 280 280 280 280 281 281 282
313 314 314 315 313 312 313 312 312 310 311 312 313 312 311 311 311 311 310 309 308 305 302 298 294 290 287 285 283 282 281 280 280 280 280 279 279 279 279 279 280 280 281 281
313 313 313 314 311 312 310 308 309 311 310 309 310 310 310 310 310 310 310 309 308 305 301 297 292 288 285 282 280 280 280 279 279 279 279 278 278 278 278 279 279 279 280 280
310 312 314 313 313 309 308 306 307 308 310 309 310 309 309 309 309 308 306 306 307 305 300 294 289 285 282 280 279 280 279 279 278 278 277 277 276 277 277 278 278 278 279 279
310 311 311 313 313 312 308 307 305 306 308 308 309 309 309 308 309 308 306 299 298 295 290 287 284 281 280 279 278 279 278 278 277 276 275 275 275 275 276 277 277 277 278 278
309 310 312 313 313 312 309 306 305 308 308 306 307 307 307 308 308 304 294 293 290 287 285 282 281 280 279 277 278 278 277 276 274 273 273 273 273 273 275 275 275 276 276 277
309 310 311 310 310 311 307 304 305 305 304 304 300 301 301 301 293 292 291 288 286 283 282 280 279 277 276 276 277 276 275 272 271 271 271 271 271 272 273 273 274 274 275 275
307 308 309 308 309 304 304 304 304 301 303 299 297 297 295 292 290 289 287 285 283 281 279 279 277 275 275 274 275 274 271 270 270 269 269 270 270 271 271 272 273 273 273 274
303 303 305 305 305 304 303 301 295 294 295 293 291 291 291 290 288 286 284 282 281 278 277 276 275 273 272 271 270 270 268 268 268 268 268 269 269 269 270 270 271 271 271 272
304 304 304 304 303 303 302 299 298 293 289 287 286 287 288 287 285 284 282 280 278 276 275 274 274 272 270 269 267 267 266 267 267 267 268 268 268 269 269 269 269 269 269 270
302 302 304 304 302 303 302 294 294 292 289 286 285 283 284 284 283 281 279 278 276 274 273 273 272 270 268 267 266 266 265 265 265 266 267 267 267 267 267 267 268 268 268 268
Wind_Speed
14 10 15 17 17 15 6 13 12 11 6 8 15 18 16 14 16 18 16 17 17 17 15 2 2 4 5 6 8 9 11 11 11 11 13 14 16 16 17 17 18 20 22 24
8 17 15 14 16 16 11 11 12 3 6 9 13 18 18 18 19 19 20 19 18 15 9 3 2 2 5 7 9 10 10 10 9 10 11 13 12 12 13 13 13 16 18 22
15 3 18 15 15 17 17 15 12 8 7 12 14 21 24 22 23 20 20 18 14 8 6 4 2 4 7 9 11 12 12 12 10 10 10 11 11 11 11 11 11 11 13 16
13 17 8 18 18 16 17 16 14 13 7 7 5 7 6 8 10 11 12 13 12 10 7 6 5 6 8 10 11 12 13 14 13 14 6 6 9 9 9 9 8 9 11 12
8 11 14 16 18 16 12 4 11 11 12 11 14 7 5 10 15 18 16 12 9 9 9 8 8 7 7 9 10 11 12 14 15 16 14 10 10 9 10 9 9 8 9 9
16 1 9 15 8 10 9 7 5 5 7 9 15 12 9 12 13 3 7 12 9 10 10 8 8 7 7 7 8 10 11 13 15 16 16 15 13 10 11 11 11 11 10 9
15 11 4 4 11 8 11 9 4 5 6 8 0 12 15 6 4 9 6 9 12 11 10 9 7 6 5 6 8 8 11 13 15 15 15 16 14 13 12 13 12 13 13 14
14 9 19 13 14 8 20 15 6 6 6 5 7 10 4 5 13 10 9 11 11 11 9 8 8 6 5 5 7 8 10 11 13 14 14 14 14 13 12 13 13 12 12 13
15 13 10 13 14 15 11 17 15 5 3 4 8 10 13 10 11 12 8 11 13 12 10 9 9 6 5 5 6 8 9 10 12 12 12 12 13 13 12 12 12 12 12 14
5 5 2 11 11 13 10 8 8 4 6 9 12 16 13 7 14 15 13 13 13 13 11 9 8 6 5 4 4 6 8 9 10 11 11 11 11 12 12 11 13 13 14 15
9 6 3 11 14 17 11 9 9 7 8 9 12 12 10 15 16 17 17 15 14 14 12 11 10 8 5 4 3 4 6 7 8 9 10 10 11 12 11 12 13 14 14 15
20 6 10 14 2 16 17 16 18 8 13 11 16 20 4 2 8 11 14 15 17 14 12 11 12 10 7 4 3 2 4 5 7 8 8 9 10 12 12 13 14 14 15 14
15 6 5 3 5 5 11 15 18 20 13 14 12 16 13 17 9 10 11 12 12 13 13 11 12 12 9 6 3 2 2 4 6 7 8 9 10 11 12 13 13 14 14 14
16 11 16 17 17 10 11 17 21 18 9 20 19 27 21 13 10 13 13 12 15 14 16 14 12 13 11 7 4 2 2 4 6 6 7 8 10 11 11 12 13 13 14 14
12 8 20 22 21 14 13 17 18 22 26 19 24 24 27 20 17 16 13 15 15 18 18 16 14 14 13 10 7 3 1 2 3 4 5 7 8 9 10 11 12 13 14 14
10 9 14 17 20 19 21 16 16 24 26 24 27 27 28 22 18 16 18 16 16 16 18 17 14 17 15 12 10 6 4 2 2 2 4 6 7 8 10 11 12 13 14 15
13 10 6 13 16 17 16 22 25 22 22 25 23 29 25 27 24 21 17 14 18 19 19 18 15 18 16 13 10 8 6 4 3 3 4 6 7 8 10 11 12 13 13 13
12 15 9 10 7 16 14 18 21 26 26 24 24 28 30 27 24 16 15 17 17 19 18 17 18 19 16 13 10 8 6 5 4 3 3 5 7 8 10 11 12 12 12 13
9 8 7 7 13 18 11 16 21 22 27 26 26 27 27 28 22 20 19 14 19 18 12 17 19 18 16 14 11 11 8 6 5 4 3 5 6 7 8 10 12 12 12 13
14 13 10 6 9 14 16 20 6 7 11 22 21 21 25 24 14 17 16 8 5 14 17 19 20 17 15 13 11 11 9 7 5 3 3 5 6 7 8 9 11 11 11 11
9 8 15 14 13 6 8 7 5 4 7 5 12 17 18 17 15 8 8 8 14 18 21 20 18 16 14 12 12 11 8 5 3 2 3 4 5 7 7 8 9 10 11 11
13 8 9 10 11 16 18 4 9 12 12 11 5 7 5 3 4 10 12 12 12 15 18 19 19 16 12 11 12 11 8 3 2 1 2 3 4 5 7 9 9 9 10 11
8 13 12 9 6 1 4 11 11 5 8 5 4 4 4 5 8 12 12 15 14 18 16 16 18 17 13 10 10 11 6 3 1 1 2 3 5 4 6 8 9 9 10 11
9 13 6 13 17 13 8 6 3 4 7 3 4 4 6 7 11 11 13 12 11 16 16 14 17 15 12 10 9 8 5 3 0 2 3 4 5 6 6 6 7 8 9 10
7 6 10 10 14 14 12 9 7 10 8 6 4 4 8 8 10 12 12 11 15 17 16 16 15 15 13 11 8 6 4 2 1 1 3 4 5 6 7 6 6 7 7 9
14 15 10 11 11 10 14 3 3 9 11 10 9 8 6 9 10 9 11 17 18 17 16 15 13 13 13 11 8 5 3 1 2 1 2 3 4 5 6 7 8 7 8 11
Wind_Direction
196 202 208 201 212 229 307 227 233 227 175 231 239 251 248 244 235 249 253 258 259 260 262 335 302 307 335 344 343 336 324 309 293 275 261 255 253 251 251 253 253 250 250 250
171 222 217 223 214 226 224 235 231 219 221 230 262 256 256 249 247 247 250 250 253 256 260 173 243 8 22 14 7 1 356 346 323 284 271 263 264 263 262 263 260 254 254 253
204 119 215 213 219 218 223 229 227 234 191 242 269 272 254 248 248 250 242 248 255 255 233 183 146 54 37 28 19 14 11 6 358 334 280 265 262 265 270 269 269 265 272 267
233 236 214 217 222 214 228 221 238 251 233 245 161 289 238 205 215 210 228 225 210 182 179 158 126 71 46 30 24 24 22 20 15 9 346 289 282 286 291 298 296 294 292 280
205 213 197 217 217 215 237 191 206 220 236 271 252 259 243 221 243 248 226 197 209 170 167 148 120 93 61 39 29 27 30 32 30 31 33 31 19 357 348 344 349 335 316 294
220 53 227 223 227 200 142 140 150 212 248 254 236 223 240 219 220 190 197 216 160 167 158 139 120 107 76 50 40 33 31 32 32 34 35 38 36 27 20 7 358 341 339 339
218 201 194 223 177 199 191 183 196 220 215 243 326 216 250 311 207 250 259 162 171 164 163 156 141 121 84 56 44 38 34 31 28 31 32 30 27 28 27 20 9 3 358 355
206 212 204 191 210 193 199 199 201 218 217 249 142 228 240 255 235 245 242 167 169 175 161 155 146 134 111 75 51 43 38 32 28 27 26 25 25 23 19 12 9 4 359 352
200 224 175 185 196 185 192 217 219 297 205 279 216 243 279 248 248 214 211 198 181 184 173 164 155 137 112 77 52 39 33 29 24 21 20 19 17 16 11 8 6 0 355 350
199 209 158 171 210 240 231 204 202 194 219 243 251 256 253 222 230 228 198 199 193 181 178 170 164 146 121 80 58 44 35 29 21 18 14 10 7 5 360 358 357 353 348 345
226 229 120 156 205 194 202 221 215 233 236 244 260 255 277 262 221 227 220 205 199 193 187 178 168 154 137 118 73 56 32 24 18 15 9 8 4 2 3 3 357 353 350 349
203 216 219 204 197 230 213 211 202 205 216 238 252 258 223 311 283 225 240 212 218 196 193 182 176 173 166 157 115 82 37 26 14 8 6 7 3 2 4 0 357 355 354 354
181 201 192 223 222 200 225 222 225 233 245 235 235 255 234 248 217 220 231 218 206 191 186 189 188 188 185 177 162 144 50 27 15 11 10 8 6 5 4 359 357 357 356 357
171 205 219 229 232 172 210 218 221 227 230 238 237 253 256 244 231 232 240 228 205 192 197 196 196 193 188 184 176 154 49 26 16 15 11 11 7 4 2 359 359 359 359 359
177 226 226 241 257 255 221 227 218 220 233 234 248 246 258 260 260 253 227 235 197 202 203 204 199 194 190 185 176 160 109 38 23 22 18 12 5 4 2 3 2 2 3 1
182 230 222 241 242 243 256 240 237 227 234 243 249 258 262 271 271 259 254 218 209 209 208 204 198 192 190 183 180 172 165 141 87 51 22 10 8 8 7 5 4 4 4 3
190 213 202 232 228 241 245 236 237 244 234 235 241 250 258 261 257 254 257 251 207 213 206 199 193 189 185 181 176 173 161 146 115 73 33 15 10 7 4 2 3 2 360 359
191 208 225 245 244 242 245 243 239 239 244 244 248 249 254 257 265 267 257 238 220 216 204 192 181 182 173 166 165 157 151 138 118 88 51 24 15 6 359 357 358 356 354 354
227 218 233 236 241 255 258 237 234 235 241 242 249 252 255 260 269 277 255 232 231 215 190 172 170 169 164 165 162 157 150 136 121 86 49 20 8 360 354 352 349 349 347 347
216 230 228 209 235 241 245 252 308 248 266 254 247 251 258 265 259 258 277 177 131 123 142 148 151 153 159 158 158 155 150 141 118 73 24 2 352 344 341 341 339 337 336 333
203 212 226 228 242 233 256 161 119 148 235 243 231 238 247 249 246 284 102 114 129 137 143 145 148 157 157 154 155 151 141 128 92 36 357 345 332 332 328 328 333 332 330 330
195 201 217 235 243 248 226 133 206 236 237 244 200 245 277 342 101 132 143 143 142 143 145 151 147 145 149 152 152 147 139 133 108 6 335 306 324 333 324 328 333 335 336 334
213 209 213 208 230 90 195 222 221 243 249 235 227 211 244 167 170 154 151 149 150 153 155 156 148 144 143 137 153 147 140 140 203 297 310 326 329 330 335 333 336 339 343 338
220 246 251 259 254 243 250 241 230 210 232 245 235 230 194 199 171 159 151 154 143 152 147 146 141 141 139 134 127 137 148 156 101 345 322 328 334 338 340 339 338 339 338 337
241 176 219 246 257 264 274 252 233 216 222 223 198 211 206 171 175 159 147 153 147 146 146 156 156 152 146 140 140 145 146 132 87 345 323 339 341 339 334 331 325 321 316 329
226 228 218 235 247 238 255 337 268 204 212 204 181 181 181 166 165 158 148 149 146 142 150 149 152 150 144 145 154 155 151 132 56 19 343 340 330 326 325 324 322 318 313 318